#timestamp,LO_Frequency,Hit,StdDev 
1501905615.3,286047000.2,N,0.4
1501905635.1,286047001.0,N,0.5
1501905655.9,286047000.9,N,0.5
1501905675.7,286046999.0,N,0.7
1501905695.5,286046998.1,N,0.9
1501905715.4,286046998.8,N,1.0
1501905735.2,286046998.8,N,1.0
1501905755.0,286046999.4,N,0.9
1501905755.9,286046999.4,N,0.9
1501905775.8,286046998.2,N,0.9
1501905795.6,286046998.8,N,0.9
1501905815.5,286046999.0,N,0.9
1501905835.3,286046998.4,N,0.9
1501905855.1,286046996.6,Y,0.0
1501905875.9,286046998.7,P,0.4
1501905895.7,286046999.1,N,0.3
1501905915.6,286046999.5,N,0.3
1501905935.4,286046999.6,N,0.3
1501905955.2,286046996.9,Y,0.0
1501905975.1,286046998.9,P,0.2
1501905976.0,286046998.9,P,0.2
1501905995.8,286046999.0,P,0.1
1501906015.7,286046997.7,Y,0.0
1501906035.5,286046997.0,P,1.0
1501906055.3,286046996.9,P,1.0
1501906075.2,286046996.9,P,0.9
1501906095.0,286046996.9,Y,0.0
1501906095.9,286046996.9,P,0.3
1501906115.8,286047000.8,N,1.7
1501906135.6,286046998.5,N,1.5
1501906155.4,286047000.8,N,1.6
1501906175.3,286046998.4,N,1.5
1501906195.1,286682703.9,Y,0.0
1501906215.9,286047001.0,P,1.1
1501906235.7,286047000.8,N,1.0
1501906255.5,286046998.5,N,1.1
1501906275.4,286046998.6,N,1.1
1501906295.2,286046999.1,N,1.0
1501906315.1,286046996.7,Y,0.0
1501906316.0,286046996.7,P,1.4
1501906335.8,286046998.6,N,1.2
1501906355.7,286046998.9,N,1.0
1501906375.5,286046999.6,N,1.0
1501906395.3,286046996.9,Y,0.0
1501906415.2,286047001.2,P,1.3
1501906435.0,286047000.8,N,1.1
1501906435.9,286047000.8,N,1.0
1501906455.8,286047000.9,N,0.9
1501906475.6,286046998.6,N,1.1
1501906495.4,286047001.1,N,1.1
1501906515.3,286046998.7,N,1.1
1501906535.1,286046999.4,N,1.1
1501906555.8,286046999.4,N,1.0
1501906575.7,286046999.1,N,1.0
1501906595.5,286046996.5,Y,0.0
1501906615.4,286046998.3,P,0.8
1501906635.2,286046998.1,N,0.8
1501906655.0,286046998.4,N,0.7
1501906655.9,286046998.4,N,0.6
1501906675.8,286046998.9,N,0.6
1501906695.6,286046996.5,Y,0.0
1501906715.5,286047001.2,P,1.3
1501906735.3,286046996.9,N,1.8
1501906755.1,286046999.2,N,1.5
1501906775.9,286046998.7,N,1.4
1501906795.7,286046998.2,N,1.3
1501906815.6,286046998.2,N,1.2
1501906835.4,286046999.4,N,1.2
1501906855.2,286046999.5,N,1.1
1501906875.1,286046997.0,N,1.2
1501906876.0,286046997.0,N,1.2
1501906895.8,286046999.2,N,1.2
1501906915.7,286046999.4,N,1.2
1501906935.5,286046999.4,N,1.1
1501906955.3,286046997.1,N,1.2
1501906975.2,286046999.6,N,1.2
1501906995.0,286046996.7,N,1.2
1501906995.9,286046996.7,N,1.3
1501907015.8,286046998.0,N,1.2
1501907035.6,286042031.3,Y,0.0
1501907055.4,286046999.3,P,0.4
1501907075.3,286046999.4,N,0.4
1501907095.1,286046996.9,P,1.0
1501907115.9,286046999.6,N,1.0
1501907135.7,286046999.5,N,1.0
1501907155.5,286046998.8,N,0.9
1501907175.4,286046999.3,N,0.8
1501907195.2,286046999.0,N,0.8
1501907215.1,286046999.1,N,0.8
1501907216.0,286046999.1,N,0.7
1501907235.8,286046998.3,N,0.7
1501907255.6,286046998.4,N,0.7
1501907275.5,286046998.9,N,0.7
1501907295.3,286046998.3,N,0.7
1501907315.2,286046998.7,N,0.6
1501907335.9,286046998.5,N,0.6
1501907355.7,286046999.3,N,0.6
1501907375.6,286046998.6,N,0.6
1501907395.4,286046999.2,N,0.6
1501907415.2,286046998.8,N,0.6
1501907435.1,286046998.9,N,0.6
1501907436.0,286046998.9,N,0.6
1501907455.8,286046999.5,N,0.6
1501907475.7,286046999.4,N,0.6
1501907495.5,286046998.9,N,0.6
1501907515.3,286046999.2,N,0.5
1501907535.2,286046999.6,N,0.5
1501907555.0,286046996.8,Y,0.0
1501907555.9,286046996.8,P,1.1
1501907575.8,286046999.4,N,1.1
1501907595.6,286046998.8,N,1.0
1501907615.5,286046998.8,N,0.9
1501907635.3,286046998.4,N,0.8
1501907655.1,286047001.2,N,1.2
1501907675.9,286046998.5,N,1.1
1501907695.7,286046998.2,N,1.1
1501907715.5,286046998.6,N,1.0
1501907735.4,286046998.1,N,1.0
1501907755.2,286046998.1,N,1.0
1501907775.1,286047000.5,N,1.1
1501907776.0,286047000.5,N,1.1
1501907795.8,286046999.9,N,1.1
1501907815.6,286047000.5,N,1.1
1501907835.5,286047001.0,N,1.2
1501907855.3,286046999.8,N,1.2
1501907875.2,286046999.9,N,1.1
1501907895.9,286046999.9,N,1.1
1501907915.7,286047002.7,N,1.3
1501907935.6,286047002.3,N,1.4
1501907955.4,286047002.4,N,1.5
1501907975.3,286047001.6,N,1.5
1501907995.1,286047002.6,N,1.6
1501908015.8,286047002.0,N,1.6
1501908035.7,286047002.0,N,1.6
1501908055.5,286047002.6,N,1.7
1501908075.4,286047002.0,N,1.7
1501908095.2,286047002.1,N,1.7
1501908115.0,286047001.4,N,1.7
1501908115.9,286047001.4,N,1.5
1501908135.8,286047004.0,N,1.6
1501908155.6,286047004.0,N,1.7
1501908175.5,286047001.5,N,1.7
1501908195.3,286047003.8,N,1.7
1501908215.1,286047003.2,N,1.7
1501908235.9,286047003.3,N,1.7
1501908255.7,286047006.0,Y,0.0
1501908275.6,286047003.9,P,1.3
1501908295.4,286047003.9,P,1.2
1501908315.2,286047004.2,P,1.2
1501908335.1,286047003.6,Y,0.0
1501908336.0,286047003.6,P,0.1
1501908355.8,286047000.5,P,1.4
1501908375.7,286047000.6,N,1.5
1501908395.5,286047000.5,N,1.4
1501908415.3,286047000.0,N,1.5
1501908435.2,286047000.2,N,1.4
1501908455.0,286047002.4,N,1.4
1501908455.9,286047002.4,N,1.3
1501908475.8,286047002.0,N,1.3
1501908495.6,286047002.2,N,1.2
1501908515.4,286047003.9,Y,0.0
1501908535.3,286047000.5,P,0.6
1501908555.1,286047000.7,N,0.5
1501908575.9,286047000.6,N,0.4
1501908595.7,286046998.2,Y,0.0
1501908615.5,286047000.8,P,0.0
1501908635.4,286047001.0,P,0.1
1501908655.2,286047000.9,P,0.1
1501908675.1,286046998.2,Y,0.0
1501908676.0,286046998.2,P,1.3
1501908695.8,286046998.8,N,1.2
1501908715.6,286046998.9,N,1.0
1501908735.5,286046998.2,N,1.0
1501908755.3,286047000.3,N,1.0
1501908775.2,286047000.5,N,1.1
1501908795.9,286046999.9,N,1.0
1501908815.7,286046999.9,N,0.9
1501908835.6,286047002.4,N,1.3
1501908855.4,286047000.2,N,1.2
1501908875.3,286047000.6,N,1.2
1501908895.1,286046999.8,N,1.1
1501908896.0,286046999.8,N,1.1
1501908915.8,286046999.9,N,1.0
1501908935.7,286047002.7,N,1.2
1501908955.5,286047011.9,Y,0.0
1501908975.4,286046999.8,P,0.1
1501908995.2,286046999.9,N,0.1
1501909015.0,286047000.7,P,0.4
1501909015.9,286047000.7,N,0.4
1501909035.8,286047000.6,N,0.4
1501909055.6,286046998.3,Y,0.0
1501909075.5,286047001.1,P,0.4
1501909095.3,286047001.2,N,0.4
1501909115.1,286046998.1,P,1.2
1501909135.9,286682705.9,Y,0.0
1501909155.7,286047000.3,P,0.1
1501909175.6,286047000.2,N,0.1
1501909195.4,286047001.0,P,0.3
